| time (UTC) | temp F | wind direction | speed MPH | gust MPH | rain 1hr in | rain 24hr in | rain mn in | humidity % | barometer mb |
| 20260505101833 | 65 | 346 | 4.0 | 9.0 | 0.00 | 0.00 | 0.00 | 31 | 1009.7 |
| 20260505101331 | 67 | 342 | 3.0 | 8.0 | 0.00 | 0.00 | 0.00 | 29 | 1009.7 |
| 20260505100832 | 67 | 332 | 3.0 | 5.0 | 0.00 | 0.00 | 0.00 | 28 | 1009.6 |
| 20260505100332 | 68 | 329 | 3.0 | 5.0 | 0.00 | 0.00 | 0.00 | 28 | 1009.4 |
| 20260505095831 | 67 | 320 | 4.0 | 12.0 | 0.00 | 0.00 | 0.00 | 27 | 1009.1 |
| 20260505095336 | 67 | 315 | 3.0 | 7.0 | 0.00 | 0.00 | 0.00 | 28 | 1008.8 |
| 20260505095330 | 67 | 328 | 4.0 | 12.0 | 0.00 | 0.00 | 0.00 | 28 | 1009.0 |
| 20260505094831 | 66 | 288 | 4.0 | 8.0 | 0.00 | 0.00 | 0.00 | 29 | 1008.8 |
| 20260505093830 | 67 | 217 | 2.0 | 8.0 | 0.00 | 0.00 | 0.00 | 28 | 1008.1 |
| 20260505093335 | 67 | 256 | 2.0 | 6.0 | 0.00 | 0.00 | 0.00 | 28 | 1007.9 |
| 20260505093330 | 67 | 250 | 2.0 | 8.0 | 0.00 | 0.00 | 0.00 | 28 | 1008.0 |
| 20260505092335 | 67 | 225 | 2.0 | 6.0 | 0.00 | 0.00 | 0.00 | 27 | 1007.7 |
| 20260505092330 | 67 | 226 | 2.0 | 6.0 | 0.00 | 0.00 | 0.00 | 27 | 1007.8 |
| 20260505091335 | 67 | 214 | 2.0 | 7.0 | 0.00 | 0.00 | 0.00 | 27 | 1007.9 |
| 20260505091330 | 67 | 189 | 2.0 | 6.0 | 0.00 | 0.00 | 0.00 | 27 | 1007.9 |
| 20260505090828 | 67 | 222 | 2.0 | 7.0 | 0.00 | 0.00 | 0.00 | 27 | 1007.9 |
| 20260505085834 | 67 | 252 | 2.0 | 6.0 | 0.00 | 0.00 | 0.00 | 27 | 1007.9 |
| 20260505085828 | 67 | 284 | 2.0 | 4.0 | 0.00 | 0.00 | 0.00 | 27 | 1007.9 |
| 20260505084828 | 67 | 256 | 2.0 | 6.0 | 0.00 | 0.00 | 0.00 | 27 | 1007.8 |
| 20260505084328 | 67 | 225 | 2.0 | 6.0 | 0.00 | 0.00 | 0.00 | 27 | 1007.8 |
| 20260505083833 | 68 | 228 | 2.0 | 4.0 | 0.00 | 0.00 | 0.00 | 27 | 1007.7 |
| 20260505083828 | 68 | 223 | 2.0 | 6.0 | 0.00 | 0.00 | 0.00 | 27 | 1007.7 |
| 20260505083441 | 68 | 263 | 2.0 | 5.0 | 0.00 | 0.00 | 0.00 | 27 | 1007.7 |
| 20260505082327 | 68 | 221 | 2.0 | 7.0 | 0.00 | 0.00 | 0.00 | 26 | 1007.6 |
| 20260505081832 | 69 | 252 | 3.0 | 6.0 | 0.00 | 0.00 | 0.00 | 26 | 1007.6 |
| 20260505081826 | 69 | 267 | 3.0 | 7.0 | 0.00 | 0.00 | 0.00 | 26 | 1007.6 |
| 20260505080827 | 69 | 234 | 3.0 | 7.0 | 0.00 | 0.00 | 0.00 | 25 | 1007.7 |
| 20260505080330 | 70 | 247 | 3.0 | 7.0 | 0.00 | 0.00 | 0.00 | 25 | 1007.8 |
| 20260505080326 | 69 | 259 | 3.0 | 7.0 | 0.00 | 0.00 | 0.00 | 25 | 1007.7 |
| 20260505075331 | 70 | 248 | 2.0 | 7.0 | 0.00 | 0.00 | 0.00 | 25 | 1007.8 |
| 20260505075327 | 70 | 275 | 2.0 | 7.0 | 0.00 | 0.00 | 0.00 | 25 | 1007.8 |
| 20260505074326 | 70 | 259 | 2.0 | 7.0 | 0.00 | 0.00 | 0.00 | 25 | 1007.9 |
| 20260505073826 | 69 | 209 | 2.0 | 3.0 | 0.00 | 0.00 | 0.00 | 25 | 1007.9 |
| 20260505073331 | 69 | 262 | 2.0 | 4.0 | 0.00 | 0.00 | 0.00 | 25 | 1007.8 |
| 20260505073325 | 69 | 236 | 2.0 | 4.0 | 0.00 | 0.00 | 0.00 | 25 | 1007.9 |
| 20260505072325 | 69 | 263 | 2.0 | 6.0 | 0.00 | 0.00 | 0.00 | 25 | 1007.9 |
| 20260505071827 | 69 | 252 | 2.0 | 6.0 | 0.00 | 0.00 | 0.00 | 25 | 1007.9 |
| 20260505071325 | 69 | 182 | 1.0 | 4.0 | 0.00 | 0.00 | 0.00 | 25 | 1008.0 |
| 20260505070825 | 69 | 273 | 1.0 | 3.0 | 0.00 | 0.00 | 0.00 | 25 | 1008.0 |
| 20260505070330 | 70 | 252 | 1.0 | 3.0 | 0.00 | 0.00 | 0.00 | 25 | 1008.0 |
| 20260505070325 | 70 | 215 | 1.0 | 3.0 | 0.00 | 0.00 | 0.00 | 25 | 1007.9 |
| 20260505065942 | 70 | 194 | 1.0 | 3.0 | 0.00 | 0.00 | 0.00 | 25 | 1008.1 |
| 20260505065938 | 70 | 225 | 1.0 | 3.0 | 0.00 | 0.00 | 0.00 | 25 | 1008.0 |
| 20260505064326 | 70 | 251 | 1.0 | 3.0 | 0.00 | 0.00 | 0.00 | 24 | 1008.1 |
| 20260505063826 | 71 | 272 | 1.0 | 3.0 | 0.00 | 0.00 | 0.00 | 24 | 1008.1 |
| 20260505063324 | 71 | 196 | 1.0 | 3.0 | 0.00 | 0.00 | 0.00 | 24 | 1008.0 |
| 20260505062825 | 71 | 315 | 1.0 | 3.0 | 0.00 | 0.00 | 0.00 | 23 | 1008.0 |
| 20260505062331 | 72 | 253 | 2.0 | 6.0 | 0.00 | 0.00 | 0.00 | 23 | 1008.1 |
| 20260505062323 | 71 | 217 | 2.0 | 4.0 | 0.00 | 0.00 | 0.00 | 23 | 1008.0 |
| 20260505061824 | 72 | 249 | 2.0 | 5.0 | 0.00 | 0.00 | 0.00 | 24 | 1008.0 |
| 20260505060830 | 72 | 281 | 2.0 | 7.0 | 0.00 | 0.00 | 0.00 | 23 | 1008.0 |
| 20260505060824 | 72 | 74 | 2.0 | 7.0 | 0.00 | 0.00 | 0.00 | 23 | 1008.1 |
| 20260505055824 | 72 | 248 | 2.0 | 4.0 | 0.00 | 0.00 | 0.00 | 23 | 1008.1 |
| 20260505055325 | 72 | 236 | 2.0 | 6.0 | 0.00 | 0.00 | 0.00 | 24 | 1008.1 |
| 20260505054830 | 72 | 232 | 2.0 | 5.0 | 0.00 | 0.00 | 0.00 | 23 | 1008.1 |
| 20260505054826 | 72 | 277 | 2.0 | 6.0 | 0.00 | 0.00 | 0.00 | 23 | 1008.1 |
| 20260505053824 | 72 | 226 | 2.0 | 6.0 | 0.00 | 0.00 | 0.00 | 24 | 1008.2 |
| 20260505053329 | 72 | 247 | 2.0 | 4.0 | 0.00 | 0.00 | 0.00 | 24 | 1008.2 |
| 20260505053325 | 72 | 232 | 2.0 | 6.0 | 0.00 | 0.00 | 0.00 | 24 | 1008.2 |
| 20260505052935 | 71 | 267 | 2.0 | 5.0 | 0.00 | 0.00 | 0.00 | 24 | 1008.2 |
| 20260505051822 | 71 | 256 | 2.0 | 6.0 | 0.00 | 0.00 | 0.00 | 24 | 1008.2 |
| 20260505051322 | 71 | 229 | 2.0 | 6.0 | 0.00 | 0.00 | 0.00 | 24 | 1008.2 |
| 20260505050823 | 71 | 263 | 2.0 | 4.0 | 0.00 | 0.00 | 0.00 | 24 | 1008.4 |
| 20260505050327 | 71 | 146 | 2.0 | 6.0 | 0.00 | 0.00 | 0.00 | 24 | 1008.4 |
| 20260505050323 | 71 | 230 | 2.0 | 4.0 | 0.00 | 0.00 | 0.00 | 24 | 1008.5 |
| 20260505041319 | 72 | 187 | 2.0 | 8.0 | 0.00 | 0.00 | 0.00 | 24 | 1008.2 |
| 20260505040818 | 72 | 219 | 2.0 | 6.0 | 0.00 | 0.00 | 0.00 | 24 | 1008.2 |
| 20260505040323 | 71 | 292 | 2.0 | 4.0 | 0.00 | 0.00 | 0.00 | 25 | 1008.1 |
| 20260505040318 | 72 | 254 | 2.0 | 5.0 | 0.00 | 0.00 | 0.00 | 24 | 1008.2 |
| 20260505035319 | 71 | 207 | 2.0 | 4.0 | 0.00 | 0.00 | 0.00 | 25 | 1008.1 |
| 20260505034816 | 71 | 152 | 2.0 | 4.0 | 0.00 | 0.00 | 0.00 | 25 | 1008.2 |
| 20260505034315 | 71 | 187 | 2.0 | 4.0 | 0.00 | 0.00 | 0.00 | 25 | 1008.1 |
| 20260505033815 | 72 | 240 | 2.0 | 4.0 | 0.00 | 0.00 | 0.00 | 25 | 1008.2 |
| 20260505033314 | 72 | 198 | 2.0 | 4.0 | 0.00 | 0.00 | 0.00 | 25 | 1008.2 |
| 20260505032812 | 72 | 232 | 2.0 | 5.0 | 0.00 | 0.00 | 0.00 | 24 | 1008.1 |
| 20260505032312 | 73 | 231 | 2.0 | 6.0 | 0.00 | 0.00 | 0.00 | 24 | 1008.1 |
| 20260505031813 | 73 | 252 | 3.0 | 6.0 | 0.00 | 0.00 | 0.00 | 24 | 1008.1 |
| 20260505031312 | 73 | 211 | 3.0 | 6.0 | 0.00 | 0.00 | 0.00 | 24 | 1008.0 |
| 20260505030817 | 73 | 251 | 2.0 | 6.0 | 0.00 | 0.00 | 0.00 | 24 | 1008.0 |
| 20260505030812 | 73 | 202 | 2.0 | 6.0 | 0.00 | 0.00 | 0.00 | 24 | 1008.1 |
| 20260505025810 | 74 | 5 | 2.0 | 6.0 | 0.00 | 0.00 | 0.00 | 23 | 1007.9 |
| 20260505025310 | 74 | 269 | 2.0 | 6.0 | 0.00 | 0.00 | 0.00 | 23 | 1007.9 |
| 20260505024810 | 74 | 227 | 2.0 | 6.0 | 0.00 | 0.00 | 0.00 | 23 | 1007.9 |
| 20260505024312 | 74 | 218 | 1.0 | 5.0 | 0.00 | 0.00 | 0.00 | 23 | 1007.8 |
| 20260505024307 | 74 | 265 | 2.0 | 5.0 | 0.00 | 0.00 | 0.00 | 23 | 1007.8 |
| 20260505023920 | 74 | 194 | 1.0 | 4.0 | 0.00 | 0.00 | 0.00 | 23 | 1007.8 |
| 20260505022810 | 75 | 217 | 1.0 | 3.0 | 0.00 | 0.00 | 0.00 | 22 | 1007.8 |
| 20260505022806 | 75 | 216 | 1.0 | 3.0 | 0.00 | 0.00 | 0.00 | 23 | 1007.8 |
| 20260505022417 | 76 | 218 | 2.0 | 4.0 | 0.00 | 0.00 | 0.00 | 21 | 1007.8 |
| 20260505021305 | 76 | 213 | 2.0 | 4.0 | 0.00 | 0.00 | 0.00 | 21 | 1007.8 |
| 20260505020804 | 76 | 139 | 2.0 | 3.0 | 0.00 | 0.00 | 0.00 | 20 | 1007.7 |
| 20260505020303 | 76 | 212 | 1.0 | 4.0 | 0.00 | 0.00 | 0.00 | 18 | 1007.8 |
| 20260505015805 | 76 | 212 | 2.0 | 5.0 | 0.00 | 0.00 | 0.00 | 16 | 1007.7 |
| 20260505015303 | 77 | 240 | 1.0 | 5.0 | 0.00 | 0.00 | 0.00 | 16 | 1007.7 |
| 20260505014803 | 77 | 232 | 1.0 | 4.0 | 0.00 | 0.00 | 0.00 | 16 | 1007.6 |
| 20260505014304 | 78 | 252 | 2.0 | 5.0 | 0.00 | 0.00 | 0.00 | 15 | 1007.6 |
| 20260505013804 | 78 | 271 | 2.0 | 6.0 | 0.00 | 0.00 | 0.00 | 15 | 1007.6 |
| 20260505013302 | 78 | 261 | 2.0 | 8.0 | 0.00 | 0.00 | 0.00 | 14 | 1007.5 |
| 20260505012802 | 78 | 274 | 2.0 | 8.0 | 0.00 | 0.00 | 0.00 | 15 | 1007.5 |
| 20260505012304 | 79 | 296 | 3.0 | 7.0 | 0.00 | 0.00 | 0.00 | 14 | 1007.4 |
| 20260505011802 | 79 | 215 | 3.0 | 9.0 | 0.00 | 0.00 | 0.00 | 14 | 1007.2 |
| 20260505011302 | 79 | 222 | 4.0 | 9.0 | 0.00 | 0.00 | 0.00 | 14 | 1007.2 |
| 20260505010802 | 79 | 167 | 3.0 | 9.0 | 0.00 | 0.00 | 0.00 | 14 | 1007.4 |
| 20260505010301 | 80 | 293 | 3.0 | 9.0 | 0.00 | 0.00 | 0.00 | 14 | 1007.4 |
| 20260505005802 | 80 | 253 | 3.0 | 9.0 | 0.00 | 0.00 | 0.00 | 14 | 1007.4 |
| 20260505005303 | 80 | 236 | 3.0 | 9.0 | 0.00 | 0.00 | 0.00 | 13 | 1007.5 |
| 20260505004804 | 80 | 205 | 4.0 | 12.0 | 0.00 | 0.00 | 0.00 | 13 | 1007.5 |
| 20260505004306 | 81 | 232 | 5.0 | 11.0 | 0.00 | 0.00 | 0.00 | 13 | 1007.5 |
| 20260505004301 | 80 | 207 | 5.0 | 12.0 | 0.00 | 0.00 | 0.00 | 13 | 1007.6 |
| 20260505003306 | 81 | 255 | 4.0 | 10.0 | 0.00 | 0.00 | 0.00 | 13 | 1007.6 |
| 20260505003302 | 81 | 269 | 5.0 | 11.0 | 0.00 | 0.00 | 0.00 | 13 | 1007.6 |
| 20260505002301 | 81 | 267 | 4.0 | 16.0 | 0.00 | 0.00 | 0.00 | 14 | 1007.6 |
| 20260505001803 | 81 | 252 | 5.0 | 16.0 | 0.00 | 0.00 | 0.00 | 14 | 1007.6 |
| 20260505001303 | 81 | 255 | 5.0 | 9.0 | 0.00 | 0.00 | 0.00 | 14 | 1007.7 |
| 20260505000801 | 82 | 217 | 4.0 | 9.0 | 0.00 | 0.00 | 0.00 | 14 | 1007.7 |
| 20260505000301 | 82 | 277 | 4.0 | 11.0 | 0.00 | 0.00 | 0.00 | 13 | 1007.7 |
| 20260504235801 | 82 | 254 | 5.0 | 11.0 | 0.00 | 0.00 | 0.00 | 13 | 1007.6 |
| 20260504235304 | 82 | 110 | 4.0 | 12.0 | 0.00 | 0.00 | 0.00 | 13 | 1007.7 |
| 20260504234802 | 82 | 238 | 5.0 | 12.0 | 0.00 | 0.00 | 0.00 | 12 | 1007.6 |
| 20260504234302 | 82 | 257 | 5.0 | 11.0 | 0.00 | 0.00 | 0.00 | 13 | 1007.6 |
| 20260504233802 | 82 | 281 | 4.0 | 9.0 | 0.00 | 0.00 | 0.00 | 13 | 1007.6 |
| 20260504233306 | 83 | 242 | 4.0 | 13.0 | 0.00 | 0.00 | 0.00 | 14 | 1007.6 |
| 20260504233302 | 82 | 254 | 4.0 | 12.0 | 0.00 | 0.00 | 0.00 | 13 | 1007.6 |
| 20260504232304 | 83 | 294 | 5.0 | 13.0 | 0.00 | 0.00 | 0.00 | 13 | 1007.5 |
| 20260504231801 | 83 | 330 | 6.0 | 10.0 | 0.00 | 0.00 | 0.00 | 13 | 1007.5 |
| 20260504231302 | 83 | 315 | 5.0 | 9.0 | 0.00 | 0.00 | 0.00 | 13 | 1007.6 |
| 20260504230803 | 83 | 224 | 5.0 | 12.0 | 0.00 | 0.00 | 0.00 | 13 | 1007.6 |
| 20260504230301 | 83 | 294 | 6.0 | 12.0 | 0.00 | 0.00 | 0.00 | 12 | 1007.5 |
| 20260504225802 | 83 | 274 | 6.0 | 14.0 | 0.00 | 0.00 | 0.00 | 13 | 1007.5 |
| 20260504225304 | 83 | 257 | 5.0 | 14.0 | 0.00 | 0.00 | 0.00 | 12 | 1007.5 |
| 20260504225258 | 84 | 278 | 5.0 | 13.0 | 0.00 | 0.00 | 0.00 | 12 | 1007.4 |
| 20260504224911 | 84 | 276 | 5.0 | 11.0 | 0.00 | 0.00 | 0.00 | 12 | 1007.5 |
| 20260504223759 | 84 | 255 | 5.0 | 11.0 | 0.00 | 0.00 | 0.00 | 13 | 1007.4 |
| 20260504223755 | 84 | 230 | 4.0 | 11.0 | 0.00 | 0.00 | 0.00 | 13 | 1007.5 |
| 20260504222758 | 84 | 298 | 5.0 | 11.0 | 0.00 | 0.00 | 0.00 | 18 | 1007.6 |
| 20260504222753 | 84 | 211 | 4.0 | 10.0 | 0.00 | 0.00 | 0.00 | 16 | 1007.4 |
| 20260504221753 | 84 | 259 | 6.0 | 11.0 | 0.00 | 0.00 | 0.00 | 16 | 1007.7 |
| 20260504221250 | 85 | 269 | 5.0 | 15.0 | 0.00 | 0.00 | 0.00 | 16 | 1007.8 |
| 20260504220753 | 84 | 162 | 4.0 | 11.0 | 0.00 | 0.00 | 0.00 | 19 | 1007.8 |
| 20260504220749 | 85 | 292 | 4.0 | 15.0 | 0.00 | 0.00 | 0.00 | 17 | 1007.8 |
| 20260504215749 | 84 | 251 | 4.0 | 13.0 | 0.00 | 0.00 | 0.00 | 18 | 1007.9 |
| 20260504215250 | 85 | 248 | 4.0 | 13.0 | 0.00 | 0.00 | 0.00 | 19 | 1008.0 |
| 20260504214755 | 84 | 269 | 4.0 | 9.0 | 0.00 | 0.00 | 0.00 | 21 | 1008.4 |
| 20260504214749 | 84 | 280 | 3.0 | 10.0 | 0.00 | 0.00 | 0.00 | 21 | 1008.0 |
| 20260504214248 | 84 | 251 | 3.0 | 8.0 | 0.00 | 0.00 | 0.00 | 22 | 1008.2 |
| 20260504213247 | 84 | 219 | 5.0 | 10.0 | 0.00 | 0.00 | 0.00 | 21 | 1008.4 |
| 20260504212745 | 84 | 284 | 5.0 | 17.0 | 0.00 | 0.00 | 0.00 | 21 | 1008.6 |
| 20260504212246 | 84 | 306 | 4.0 | 17.0 | 0.00 | 0.00 | 0.00 | 22 | 1008.7 |
| 20260504211745 | 84 | 238 | 4.0 | 11.0 | 0.00 | 0.00 | 0.00 | 22 | 1008.7 |
| 20260504211243 | 84 | 303 | 3.0 | 8.0 | 0.00 | 0.00 | 0.00 | 21 | 1008.8 |
| 20260504210744 | 84 | 290 | 3.0 | 9.0 | 0.00 | 0.00 | 0.00 | 20 | 1008.8 |
| 20260504210241 | 84 | 262 | 4.0 | 9.0 | 0.00 | 0.00 | 0.00 | 20 | 1009.1 |
| 20260504205747 | 84 | 252 | 4.0 | 10.0 | 0.00 | 0.00 | 0.00 | 19 | 1009.1 |
| 20260504205742 | 84 | 250 | 4.0 | 9.0 | 0.00 | 0.00 | 0.00 | 20 | 1009.1 |
| 20260504205353 | 85 | 295 | 3.0 | 10.0 | 0.00 | 0.00 | 0.00 | 19 | 1009.1 |
| 20260504204241 | 85 | 215 | 4.0 | 9.0 | 0.00 | 0.00 | 0.00 | 19 | 1009.3 |
| 20260504203741 | 85 | 231 | 4.0 | 9.0 | 0.00 | 0.00 | 0.00 | 18 | 1009.4 |
| 20260504203242 | 86 | 290 | 3.0 | 9.0 | 0.00 | 0.00 | 0.00 | 19 | 1009.3 |
| 20260504202741 | 85 | 224 | 4.0 | 11.0 | 0.00 | 0.00 | 0.00 | 18 | 1009.4 |
| 20260504202239 | 85 | 229 | 4.0 | 11.0 | 0.00 | 0.00 | 0.00 | 17 | 1009.4 |
| 20260504201739 | 85 | 292 | 4.0 | 11.0 | 0.00 | 0.00 | 0.00 | 19 | 1009.5 |
| 20260504201240 | 85 | 251 | 5.0 | 11.0 | 0.00 | 0.00 | 0.00 | 19 | 1009.6 |
| 20260504200739 | 85 | 261 | 4.0 | 11.0 | 0.00 | 0.00 | 0.00 | 19 | 1009.6 |
| 20260504200239 | 85 | 182 | 4.0 | 9.0 | 0.00 | 0.00 | 0.00 | 19 | 1009.7 |
| 20260504195739 | 85 | 228 | 4.0 | 11.0 | 0.00 | 0.00 | 0.00 | 20 | 1009.6 |
| 20260504195239 | 85 | 300 | 3.0 | 11.0 | 0.00 | 0.00 | 0.00 | 21 | 1009.8 |
| 20260504194738 | 85 | 241 | 3.0 | 8.0 | 0.00 | 0.00 | 0.00 | 21 | 1009.7 |
| 20260504194236 | 85 | 171 | 3.0 | 8.0 | 0.00 | 0.00 | 0.00 | 22 | 1009.9 |
| 20260504193737 | 85 | 296 | 3.0 | 8.0 | 0.00 | 0.00 | 0.00 | 23 | 1009.9 |
| 20260504193235 | 84 | 236 | 4.0 | 11.0 | 0.00 | 0.00 | 0.00 | 22 | 1010.0 |
| 20260504192735 | 84 | 281 | 4.0 | 11.0 | 0.00 | 0.00 | 0.00 | 21 | 1010.2 |
| 20260504192235 | 85 | 293 | 3.0 | 9.0 | 0.00 | 0.00 | 0.00 | 23 | 1010.2 |
| 20260504191735 | 84 | 204 | 2.0 | 8.0 | 0.00 | 0.00 | 0.00 | 23 | 1010.3 |
| 20260504191239 | 83 | 267 | 3.0 | 13.0 | 0.00 | 0.00 | 0.00 | 23 | 1010.4 |
| 20260504191235 | 84 | 225 | 3.0 | 9.0 | 0.00 | 0.00 | 0.00 | 23 | 1010.3 |
| 20260504190848 | 83 | 178 | 3.0 | 13.0 | 0.00 | 0.00 | 0.00 | 23 | 1010.4 |
| 20260504185737 | 83 | 251 | 3.0 | 8.0 | 0.00 | 0.00 | 0.00 | 24 | 1010.4 |
| 20260504185235 | 83 | 271 | 3.0 | 7.0 | 0.00 | 0.00 | 0.00 | 26 | 1010.5 |
| 20260504184740 | 83 | 186 | 2.0 | 8.0 | 0.00 | 0.00 | 0.00 | 26 | 1010.6 |
| 20260504184736 | 83 | 297 | 2.0 | 7.0 | 0.00 | 0.00 | 0.00 | 24 | 1010.7 |
| 20260504183733 | 82 | 188 | 4.0 | 9.0 | 0.00 | 0.00 | 0.00 | 26 | 1010.7 |
| 20260504183239 | 82 | 246 | 3.0 | 8.0 | 0.00 | 0.00 | 0.00 | 27 | 1011.0 |
| 20260504183234 | 82 | 261 | 4.0 | 9.0 | 0.00 | 0.00 | 0.00 | 26 | 1010.9 |
| 20260504182734 | 82 | 265 | 3.0 | 8.0 | 0.00 | 0.00 | 0.00 | 26 | 1010.9 |
| 20260504181734 | 82 | 215 | 4.0 | 10.0 | 0.00 | 0.00 | 0.00 | 27 | 1011.3 |
| 20260504181234 | 82 | 243 | 4.0 | 10.0 | 0.00 | 0.00 | 0.00 | 27 | 1011.5 |
| 20260504180734 | 82 | 261 | 3.0 | 9.0 | 0.00 | 0.00 | 0.00 | 28 | 1011.4 |
| 20260504180233 | 81 | 281 | 4.0 | 10.0 | 0.00 | 0.00 | 0.00 | 28 | 1011.6 |
| 20260504175732 | 81 | 282 | 4.0 | 10.0 | 0.00 | 0.00 | 0.00 | 28 | 1011.6 |
| 20260504175232 | 81 | 271 | 4.0 | 9.0 | 0.00 | 0.00 | 0.00 | 29 | 1011.8 |
| 20260504174733 | 81 | 263 | 4.0 | 10.0 | 0.00 | 0.00 | 0.00 | 28 | 1011.8 |
| 20260504174346 | 80 | 283 | 5.0 | 11.0 | 0.00 | 0.00 | 0.00 | 29 | 1012.1 |
| 20260504174235 | 80 | 259 | 4.0 | 11.0 | 0.00 | 0.00 | 0.00 | 29 | 1012.1 |
| 20260504174231 | 80 | 265 | 4.0 | 10.0 | 0.00 | 0.00 | 0.00 | 29 | 1011.9 |
| 20260504173343 | 79 | 245 | 6.0 | 17.0 | 0.00 | 0.00 | 0.00 | 29 | 1012.3 |
| 20260504172729 | 80 | 283 | 5.0 | 9.0 | 0.00 | 0.00 | 0.00 | 29 | 1012.2 |
| 20260504172229 | 80 | 288 | 5.0 | 10.0 | 0.00 | 0.00 | 0.00 | 29 | 1012.3 |
| 20260504171730 | 79 | 281 | 7.0 | 17.0 | 0.00 | 0.00 | 0.00 | 29 | 1012.3 |
| 20260504170727 | 79 | 269 | 6.0 | 12.0 | 0.00 | 0.00 | 0.00 | 29 | 1012.4 |
| 20260504170232 | 79 | 275 | 5.0 | 11.0 | 0.00 | 0.00 | 0.00 | 30 | 1012.5 |
| 20260504170227 | 79 | 294 | 6.0 | 12.0 | 0.00 | 0.00 | 0.00 | 29 | 1012.5 |
| 20260504160227 | 73 | 275 | 3.0 | 7.0 | 0.00 | 0.00 | 0.00 | 40 | 1013.2 |
| 20260504150720 | 69 | 246 | 4.0 | 8.0 | 0.00 | 0.00 | 0.00 | 48 | 1013.3 |
| 20260504150220 | 68 | 268 | 3.0 | 7.0 | 0.00 | 0.00 | 0.00 | 49 | 1013.4 |
| 20260504141220 | 64 | 200 | 2.0 | 6.0 | 0.00 | 0.00 | 0.00 | 56 | 1013.5 |
| 20260504140718 | 64 | 208 | 2.0 | 6.0 | 0.00 | 0.00 | 0.00 | 57 | 1013.4 |
| 20260504140218 | 64 | 279 | 2.0 | 6.0 | 0.00 | 0.00 | 0.00 | 57 | 1013.5 |
| 20260504130718 | 60 | 144 | 2.0 | 4.0 | 0.00 | 0.00 | 0.00 | 61 | 1012.8 |
| 20260504130223 | 60 | 211 | 2.0 | 7.0 | 0.00 | 0.00 | 0.00 | 62 | 1012.7 |
| 20260504130219 | 60 | 204 | 2.0 | 7.0 | 0.00 | 0.00 | 0.00 | 62 | 1012.7 |
| 20260504120217 | 59 | 250 | 2.0 | 6.0 | 0.00 | 0.00 | 0.00 | 62 | 1012.2 |
| 20260504110704 | 59 | 249 | 2.0 | 7.0 | 0.00 | 0.00 | 0.00 | 61 | 1012.1 |
| 20260504110209 | 59 | 186 | 1.0 | 6.0 | 0.00 | 0.00 | 0.00 | 61 | 1012.2 |
| 20260504110204 | 59 | 234 | 1.0 | 7.0 | 0.00 | 0.00 | 0.00 | 62 | 1012.1 |